Location: *
(60.1759°S, 155.0663°W)
Time: 00:15:33
(UTC+00:00)

IDEFIX/ARIANE 42P - Pass Details

Date: 17 September 2019
Orbit: 786 x 802 km, 98.3° (Epoch: 20 October)

Event Time Altitude Azimuth Distance (km) Brightness Sun altitude
Exits shadow 15:21:50 10° 269° (W) 2,399 4.4 -8.5°
Reaches altitude 10° 15:21:53 10° 269° (W) 2,394 4.4 -8.5°
Maximum altitude 15:23:05 11° 255° (WSW) 2,347 4.5 -8.3°
Drops below altitude 10° 15:24:17 10° 242° (WSW) 2,398 4.6 -8.2°
Sets 15:28:57 0° 205° (SSW) 3,334 5.6 -7.6°
